Weather History for Dubuque, IA

Change the Weather History Date:

Sunday, December 30, 2012

  Actual Average Record
Temperature  
Mean Temperature 17 °F 19 °F  
Max Temperature 34 °F 27 °F 56 °F (1965)
Min Temperature -1 °F 12 °F -16 °F (1968)
Degree Days  
Heating Degree Days 48 46  
Month to date heating degree days 1086 1266  
Since 1 July heating degree days 2637 2766  
Cooling Degree Days 0 0  
Month to date cooling degree days 0 0  
Year to date cooling degree days 907 643  
Moisture  
Dew Point 10 °F    
Average Humidity 82    
Maximum Humidity 100    
Minimum Humidity 64    
Precipitation  
Precipitation 0.00 in 0.04 in 1.45 in (1906)
Month to date precipitation 2.37 1.80  
Year to date precipitation 24.07 36.25  
Snow  
Snow 0.00 in 0.30 in - ()
Month to date snowfall 18.8 11.4  
Since 1 July snowfall 19.2 14.2  
Snow Depth 6.00 in    
Sea Level Pressure  
Sea Level Pressure 30.21 in    
Wind  
Wind Speed 10 mph (SSW)    
Max Wind Speed 24 mph    
Max Gust Speed 33 mph    
Visibility 6 miles    
Events      
T = Trace of Precipitation, MM = Missing Value Source: NWS Daily Summary

Daily Weather History Graph

Daily Weather History Graph

Search for Another Location

Airport:

Trip Planner

Search our weather history database for the weather conditions in past years. The results will help you decide how hot, cold, wet, or windy it might be!

Date:

Astronomy

Dec. 30, 2012 Rise Set
Actual Time 7:32 AM CST 4:39 PM CST
Civil Twilight 7:00 AM CST 5:11 PM CST
Nautical Twilight 6:24 AM CST 5:46 PM CST
Astronomical Twilight 5:50 AM CST 6:20 PM CST
Moon 7:13 PM CST (12/30) 8:38 AM CST (12/30)
Length of Visible Light 10h 11m
Length of Day
9h 07m
Waning Gibbous, 95% of the Moon is Illuminated
Dec 30
Waning Gibbous
Jan 4
Last Quarter
Jan 11
New
Jan 18
First Quarter
Jan 26
Full

Hourly Weather History & Observations

Time (CST) Temp. Windchill Dew Point Humidity Pressure Visibility Wind Dir Wind Speed Gust Speed Precip Events Conditions
12:53 AM 3.9 °F -3.4 °F 1.9 °F 91% 30.26 in 5.0 mi SSW 3.5 mph - N/A   Clear
1:53 AM 5.0 °F -2.1 °F 1.9 °F 87% 30.28 in 5.0 mi SW 3.5 mph - N/A   Clear
2:53 AM 3.9 °F - 1.0 °F 88% 30.29 in 4.0 mi Calm Calm - N/A   Clear
3:53 AM 1.9 °F -5.6 °F -2.0 °F 83% 30.31 in 5.0 mi SW 3.5 mph - N/A   Clear
4:53 AM 3.0 °F -4.4 °F -0.9 °F 84% 30.30 in 4.0 mi SW 3.5 mph - N/A   Clear
5:53 AM 1.0 °F -8.7 °F -2.0 °F 87% 30.31 in 5.0 mi SW 4.6 mph - N/A   Clear
6:53 AM -0.0 °F -13.0 °F -2.9 °F 88% 30.33 in 5.0 mi SSW 6.9 mph - N/A   Clear
7:53 AM 1.0 °F -12.9 °F -2.0 °F 87% 30.35 in 4.0 mi SW 8.1 mph - N/A   Clear
8:53 AM 1.9 °F -7.6 °F 1.0 °F 96% 30.33 in 4.0 mi SSW 4.6 mph - N/A   Clear
9:53 AM 6.1 °F -0.9 °F 3.9 °F 91% 30.34 in 4.0 mi SSW 3.5 mph - N/A   Clear
10:53 AM 10.0 °F -0.9 °F 7.0 °F 87% 30.33 in 4.0 mi SSW 6.9 mph - N/A   Clear
11:53 AM 14.0 °F 1.2 °F 10.0 °F 84% 30.31 in 5.0 mi SSW 10.4 mph - N/A   Clear
12:53 PM 17.1 °F 6.6 °F 12.0 °F 81% 30.26 in 5.0 mi South 8.1 mph - N/A   Haze
1:53 PM 18.0 °F 6.9 °F 12.9 °F 81% 30.22 in 5.0 mi SSE 9.2 mph - N/A   Haze
2:53 PM 19.9 °F 8.6 °F 15.1 °F 81% 30.20 in 5.0 mi South 10.4 mph - N/A   Haze
3:53 PM 21.0 °F 9.3 °F 16.0 °F 81% 30.18 in 4.0 mi South 11.5 mph - N/A   Haze
4:53 PM 21.0 °F 8.6 °F 16.0 °F 81% 30.17 in 5.0 mi SSE 12.7 mph - N/A   Haze
5:53 PM 23.0 °F 9.2 °F 18.0 °F 81% 30.13 in 8.0 mi SSE 17.3 mph - N/A   Clear
6:53 PM 24.1 °F 11.5 °F 19.0 °F 81% 30.11 in 8.0 mi South 15.0 mph - N/A   Clear
7:53 PM 27.0 °F 15.2 °F 21.0 °F 78% 30.09 in 10.0 mi South 15.0 mph - N/A   Clear
8:53 PM 28.9 °F 16.9 °F 23.0 °F 78% 30.06 in 10.0 mi South 17.3 mph - N/A   Clear
9:53 PM 30.9 °F 18.7 °F 23.0 °F 72% 30.03 in 10.0 mi SSW 19.6 mph - N/A   Clear
10:53 PM 33.1 °F 21.9 °F 23.0 °F 66% 30.01 in 10.0 mi SW 18.4 mph 26.5 mph N/A   Clear
11:53 PM 33.1 °F 20.9 °F 23.0 °F 66% 30.01 in 10.0 mi SW 21.9 mph - N/A   Clear